Time,TemperatureF,DewpointF,PressureIn,WindDirection,WindDirectionDegrees,WindSpeedMPH,WindSpeedGustMPH,Humidity,HourlyPrecipIn,Conditions,Clouds,dailyrainin,SoftwareType,DateUTC
2013-04-13 00:02:00,30.0,27.0,29.95,WNW,284,2.0,7.0,88,0.00,,,0.00,,2013-04-13 05:02:00,
2013-04-13 00:12:00,30.0,27.0,29.95,WNW,284,2.0,7.0,88,0.00,,,0.00,,2013-04-13 05:12:00,
2013-04-13 00:22:00,30.0,26.0,29.95,WNW,287,2.0,10.0,86,0.00,,,0.00,,2013-04-13 05:22:00,
2013-04-13 00:32:00,30.0,26.0,29.95,NW,314,3.0,6.0,86,0.00,,,0.00,,2013-04-13 05:32:00,
2013-04-13 00:42:00,30.0,26.0,29.95,NW,314,3.0,6.0,86,0.00,,,0.00,,2013-04-13 05:42:00,
2013-04-13 00:52:00,30.0,26.0,29.96,NW,312,4.0,9.0,86,0.00,,,0.00,,2013-04-13 05:52:00,
2013-04-13 01:02:00,30.0,27.0,29.96,NW,304,2.0,8.0,87,0.00,,,0.00,,2013-04-13 06:02:00,
2013-04-13 01:12:00,30.0,27.0,29.96,NW,304,2.0,8.0,87,0.00,,,0.00,,2013-04-13 06:12:00,
2013-04-13 01:24:00,30.0,27.0,29.96,WNW,301,3.0,7.0,87,0.00,,,0.00,,2013-04-13 06:24:00,
2013-04-13 01:34:00,29.0,26.0,29.97,WNW,286,1.0,6.0,88,0.00,,,0.00,,2013-04-13 06:34:00,
2013-04-13 01:46:00,29.0,26.0,29.97,WNW,286,1.0,6.0,88,0.00,,,0.00,,2013-04-13 06:46:00,
2013-04-13 01:53:00,29.0,26.0,29.97,West,276,3.0,7.0,88,0.00,,,0.00,,2013-04-13 06:53:00,
2013-04-13 02:05:00,29.0,26.0,29.97,West,264,3.0,8.0,87,0.00,,,0.00,,2013-04-13 07:05:00,
2013-04-13 02:14:00,29.0,26.0,29.97,West,264,3.0,8.0,87,0.00,,,0.00,,2013-04-13 07:14:00,
2013-04-13 02:24:00,29.0,26.0,29.97,WNW,300,2.0,7.0,87,0.00,,,0.00,,2013-04-13 07:24:00,
2013-04-13 02:34:00,29.0,26.0,29.97,WSW,250,3.0,7.0,87,0.00,,,0.00,,2013-04-13 07:34:00,
2013-04-13 02:44:00,29.0,26.0,29.97,WSW,250,3.0,7.0,87,0.00,,,0.00,,2013-04-13 07:44:00,
2013-04-13 02:54:00,29.0,26.0,29.96,NW,307,3.0,8.0,87,0.00,,,0.00,,2013-04-13 07:54:00,
2013-04-13 03:06:00,29.0,26.0,29.96,WNW,295,4.0,7.0,87,0.00,,,0.00,,2013-04-13 08:06:00,
2013-04-13 03:15:00,29.0,26.0,29.96,WNW,295,4.0,7.0,87,0.00,,,0.00,,2013-04-13 08:15:00,
2013-04-13 03:25:00,29.0,26.0,29.96,WNW,301,3.0,11.0,88,0.00,,,0.00,,2013-04-13 08:25:00,
2013-04-13 03:34:00,29.0,26.0,29.96,NW,308,3.0,9.0,88,0.00,,,0.00,,2013-04-13 08:34:00,
2013-04-13 03:53:00,28.0,25.0,29.97,WNW,295,4.0,7.0,89,0.00,,,0.00,,2013-04-13 08:53:00,
2013-04-13 04:05:00,28.0,25.0,29.96,WSW,240,3.0,6.0,89,0.00,,,0.00,,2013-04-13 09:05:00,
2013-04-13 04:14:00,28.0,25.0,29.96,WSW,240,3.0,6.0,89,0.00,,,0.00,,2013-04-13 09:14:00,
2013-04-13 04:24:00,28.0,25.0,29.96,WNW,285,2.0,5.0,90,0.00,,,0.00,,2013-04-13 09:24:00,
2013-04-13 04:36:00,27.0,24.0,29.96,WNW,292,2.0,6.0,90,0.00,,,0.00,,2013-04-13 09:36:00,
2013-04-13 04:54:00,27.0,25.0,29.96,WNW,295,2.0,6.0,91,0.00,,,0.00,,2013-04-13 09:54:00,
2013-04-13 05:05:00,27.0,25.0,29.96,WNW,293,2.0,5.0,91,0.00,,,0.00,,2013-04-13 10:05:00,
2013-04-13 05:15:00,27.0,25.0,29.97,WNW,283,2.0,7.0,92,0.00,,,0.00,,2013-04-13 10:15:00,
2013-04-13 05:24:00,27.0,25.0,29.97,WNW,283,2.0,7.0,92,0.00,,,0.00,,2013-04-13 10:24:00,
2013-04-13 05:36:00,27.0,25.0,29.97,WNW,293,2.0,6.0,92,0.00,,,0.00,,2013-04-13 10:36:00,
2013-04-13 05:45:00,27.0,25.0,29.97,WNW,293,2.0,6.0,92,0.00,,,0.00,,2013-04-13 10:45:00,
2013-04-13 05:53:00,27.0,25.0,29.97,NW,308,3.0,5.0,92,0.00,,,0.00,,2013-04-13 10:53:00,
2013-04-13 06:05:00,27.0,25.0,29.97,WNW,293,3.0,8.0,91,0.00,,,0.00,,2013-04-13 11:05:00,
2013-04-13 06:13:00,27.0,25.0,29.97,WNW,293,3.0,8.0,91,0.00,,,0.00,,2013-04-13 11:13:00,
2013-04-13 06:24:00,27.0,25.0,29.97,WNW,293,3.0,6.0,91,0.00,,,0.00,,2013-04-13 11:24:00,
2013-04-13 06:34:00,27.0,25.0,29.97,WNW,295,3.0,8.0,91,0.00,,,0.00,,2013-04-13 11:34:00,
2013-04-13 06:44:00,27.0,25.0,29.97,WNW,295,3.0,8.0,91,0.00,,,0.00,,2013-04-13 11:44:00,
2013-04-13 06:53:00,27.0,25.0,29.97,NW,304,3.0,11.0,91,0.00,,,0.00,,2013-04-13 11:53:00,
2013-04-13 07:08:00,26.0,24.0,29.97,WNW,300,3.0,6.0,91,0.00,,,0.00,,2013-04-13 12:08:00,
2013-04-13 07:14:00,26.0,24.0,29.97,WNW,300,3.0,6.0,91,0.00,,,0.00,,2013-04-13 12:14:00,
2013-04-13 07:24:00,26.0,24.0,29.97,WNW,297,2.0,6.0,91,0.00,,,0.00,,2013-04-13 12:24:00,
2013-04-13 07:35:00,26.0,24.0,29.98,WNW,293,2.0,7.0,92,0.00,,,0.00,,2013-04-13 12:35:00,
2013-04-13 07:46:00,26.0,24.0,29.98,WNW,293,2.0,7.0,92,0.00,,,0.00,,2013-04-13 12:46:00,
2013-04-13 07:54:00,27.0,25.0,29.99,West,259,1.0,4.0,92,0.00,,,0.00,,2013-04-13 12:54:00,
2013-04-13 08:05:00,27.0,25.0,29.99,West,273,1.0,5.0,92,0.00,,,0.00,,2013-04-13 13:05:00,
2013-04-13 08:15:00,27.0,25.0,29.99,West,273,1.0,5.0,92,0.00,,,0.00,,2013-04-13 13:15:00,
2013-04-13 08:27:00,28.0,26.0,30.00,WNW,290,2.0,4.0,92,0.00,,,0.00,,2013-04-13 13:27:00,
2013-04-13 08:34:00,28.0,26.0,30.00,WNW,293,2.0,8.0,91,0.00,,,0.00,,2013-04-13 13:34:00,
2013-04-13 08:47:00,28.0,26.0,30.00,WNW,293,2.0,8.0,91,0.00,,,0.00,,2013-04-13 13:47:00,
2013-04-13 08:53:00,28.0,25.0,30.00,West,264,3.0,10.0,90,0.00,,,0.00,,2013-04-13 13:53:00,
2013-04-13 09:04:00,29.0,26.0,29.99,WNW,285,3.0,6.0,89,0.00,,,0.00,,2013-04-13 14:04:00,
2013-04-13 09:14:00,29.0,26.0,29.99,WNW,285,3.0,6.0,89,0.00,,,0.00,,2013-04-13 14:14:00,
2013-04-13 09:23:00,30.0,27.0,30.00,WNW,297,3.0,7.0,88,0.00,,,0.00,,2013-04-13 14:23:00,
2013-04-13 09:45:00,30.0,27.0,30.00,WNW,285,3.0,8.0,87,0.00,,,0.00,,2013-04-13 14:45:00,
2013-04-13 09:54:00,30.0,27.0,30.00,WNW,301,3.0,6.0,88,0.00,,,0.00,,2013-04-13 14:54:00,
2013-04-13 10:04:00,31.0,28.0,30.00,WNW,288,2.0,6.0,87,0.00,,,0.00,,2013-04-13 15:04:00,
2013-04-13 10:14:00,31.0,28.0,30.00,WNW,288,2.0,6.0,87,0.00,,,0.00,,2013-04-13 15:14:00,
2013-04-13 10:28:00,31.0,27.0,30.00,WNW,288,3.0,8.0,86,0.00,,,0.00,,2013-04-13 15:28:00,
2013-04-13 10:35:00,32.0,29.0,30.01,WSW,248,2.0,8.0,87,0.00,,,0.00,,2013-04-13 15:35:00,
2013-04-13 10:44:00,32.0,29.0,30.01,WSW,248,2.0,8.0,87,0.00,,,0.00,,2013-04-13 15:44:00,
2013-04-13 10:54:00,32.0,28.0,30.01,WNW,301,3.0,5.0,84,0.00,,,0.00,,2013-04-13 15:54:00,
2013-04-13 11:06:00,32.0,28.0,30.01,WSW,240,2.0,6.0,86,0.00,,,0.00,,2013-04-13 16:06:00,
2013-04-13 11:15:00,32.0,28.0,30.01,WSW,240,2.0,6.0,86,0.00,,,0.00,,2013-04-13 16:15:00,
2013-04-13 11:24:00,32.0,29.0,30.02,West,276,1.0,6.0,88,0.00,,,0.00,,2013-04-13 16:24:00,
2013-04-13 11:35:00,33.0,29.0,30.01,NW,313,1.0,7.0,85,0.00,,,0.00,,2013-04-13 16:35:00,
2013-04-13 11:45:00,33.0,29.0,30.01,NW,313,1.0,7.0,85,0.00,,,0.00,,2013-04-13 16:45:00,
2013-04-13 11:53:00,34.0,30.0,30.01,West,271,2.0,7.0,85,0.00,,,0.00,,2013-04-13 16:53:00,
2013-04-13 12:20:00,34.0,30.0,30.01,West,271,2.0,7.0,85,0.00,,,0.00,,2013-04-13 17:20:00,
2013-04-13 12:37:00,34.0,29.0,30.01,WNW,294,2.0,7.0,81,0.00,,,0.00,,2013-04-13 17:37:00,
2013-04-13 12:44:00,34.0,29.0,30.01,WNW,294,2.0,7.0,81,0.00,,,0.00,,2013-04-13 17:44:00,
2013-04-13 12:58:00,34.0,28.0,30.01,NNW,335,2.0,6.0,80,0.01,,,0.01,,2013-04-13 17:58:00,
2013-04-13 13:14:00,35.0,29.0,30.01,WNW,283,3.0,6.0,80,0.01,,,0.01,,2013-04-13 18:14:00,
2013-04-13 13:24:00,36.0,30.0,30.00,NW,325,2.0,4.0,80,0.01,,,0.01,,2013-04-13 18:24:00,
2013-04-13 13:33:00,36.0,30.0,29.99,WNW,301,3.0,10.0,79,0.01,,,0.01,,2013-04-13 18:33:00,
2013-04-13 13:42:00,36.0,30.0,29.99,WNW,301,3.0,10.0,79,0.01,,,0.01,,2013-04-13 18:42:00,
2013-04-13 13:52:00,38.0,31.0,29.98,NW,308,3.0,9.0,77,0.00,,,0.01,,2013-04-13 18:52:00,
2013-04-13 14:03:00,36.0,29.0,29.97,NW,326,4.0,8.0,77,0.00,,,0.01,,2013-04-13 19:03:00,
2013-04-13 14:12:00,36.0,29.0,29.97,NW,326,4.0,8.0,77,0.00,,,0.01,,2013-04-13 19:12:00,
2013-04-13 14:22:00,38.0,31.0,29.97,WNW,295,3.0,10.0,77,0.00,,,0.01,,2013-04-13 19:22:00,
2013-04-13 14:32:00,39.0,32.0,29.96,NW,308,3.0,7.0,76,0.00,,,0.01,,2013-04-13 19:32:00,
2013-04-13 14:42:00,39.0,32.0,29.96,NW,308,3.0,7.0,76,0.00,,,0.01,,2013-04-13 19:42:00,
2013-04-13 14:52:00,39.0,30.0,29.97,West,263,3.0,6.0,71,0.00,,,0.01,,2013-04-13 19:52:00,
2013-04-13 15:02:00,39.0,31.0,29.97,WNW,302,1.0,6.0,73,0.00,,,0.01,,2013-04-13 20:02:00,
2013-04-13 15:12:00,39.0,31.0,29.97,WNW,302,1.0,6.0,73,0.00,,,0.01,,2013-04-13 20:12:00,
2013-04-13 15:22:00,39.0,31.0,29.97,WNW,288,2.0,5.0,73,0.00,,,0.01,,2013-04-13 20:22:00,
2013-04-13 15:32:00,41.0,33.0,29.97,West,278,2.0,6.0,73,0.00,,,0.01,,2013-04-13 20:32:00,
2013-04-13 15:42:00,41.0,33.0,29.97,West,278,2.0,6.0,73,0.00,,,0.01,,2013-04-13 20:42:00,
2013-04-13 15:52:00,41.0,31.0,29.96,WNW,288,2.0,5.0,68,0.00,,,0.01,,2013-04-13 20:52:00,
2013-04-13 16:02:00,42.0,32.0,29.95,NW,320,2.0,5.0,68,0.00,,,0.01,,2013-04-13 21:02:00,
2013-04-13 16:12:00,42.0,32.0,29.95,NW,320,2.0,5.0,68,0.00,,,0.01,,2013-04-13 21:12:00,
2013-04-13 16:22:00,42.0,32.0,29.94,NW,312,2.0,3.0,68,0.00,,,0.01,,2013-04-13 21:22:00,
2013-04-13 16:32:00,43.0,33.0,29.93,SW,235,1.0,5.0,67,0.00,,,0.01,,2013-04-13 21:32:00,
2013-04-13 16:43:00,43.0,33.0,29.93,SW,235,1.0,5.0,67,0.00,,,0.01,,2013-04-13 21:43:00,
2013-04-13 16:52:00,42.0,33.0,29.93,NNE,16,0.0,3.0,70,0.00,,,0.01,,2013-04-13 21:52:00,
2013-04-13 17:03:00,42.0,31.0,29.93,SW,221,2.0,6.0,65,0.00,,,0.01,,2013-04-13 22:03:00,
2013-04-13 17:12:00,42.0,31.0,29.93,SW,221,2.0,6.0,65,0.00,,,0.01,,2013-04-13 22:12:00,
2013-04-13 17:22:00,42.0,31.0,29.93,North,350,0.0,3.0,65,0.00,,,0.01,,2013-04-13 22:22:00,
2013-04-13 17:33:00,42.0,31.0,29.92,SSW,197,1.0,3.0,66,0.00,,,0.01,,2013-04-13 22:33:00,
2013-04-13 17:42:00,42.0,31.0,29.92,SSW,197,1.0,3.0,66,0.00,,,0.01,,2013-04-13 22:42:00,
2013-04-13 17:52:00,42.0,31.0,29.92,SSE,153,3.0,5.0,64,0.00,,,0.01,,2013-04-13 22:52:00,
2013-04-13 18:02:00,41.0,30.0,29.91,South,187,1.0,5.0,64,0.00,,,0.01,,2013-04-13 23:02:00,
2013-04-13 18:12:00,41.0,30.0,29.91,South,187,1.0,5.0,64,0.00,,,0.01,,2013-04-13 23:12:00,
2013-04-13 18:22:00,41.0,31.0,29.91,SSE,166,0.0,3.0,66,0.00,,,0.01,,2013-04-13 23:22:00,
2013-04-13 18:32:00,41.0,31.0,29.91,SSE,167,0.0,3.0,67,0.00,,,0.01,,2013-04-13 23:32:00,
2013-04-13 18:42:00,41.0,31.0,29.91,SSE,167,0.0,3.0,67,0.00,,,0.01,,2013-04-13 23:42:00,
2013-04-13 18:52:00,40.0,32.0,29.91,ESE,114,0.0,7.0,73,0.00,,,0.01,,2013-04-13 23:52:00,
2013-04-13 19:02:00,40.0,31.0,29.91,ESE,110,0.0,3.0,70,0.00,,,0.01,,2013-04-14 00:02:00,
2013-04-13 19:12:00,40.0,31.0,29.91,ESE,110,0.0,3.0,70,0.00,,,0.01,,2013-04-14 00:12:00,
2013-04-13 19:22:00,40.0,32.0,29.91,East,98,1.0,2.0,73,0.00,,,0.01,,2013-04-14 00:22:00,
2013-04-13 19:32:00,40.0,33.0,29.91,ESE,105,1.0,3.0,76,0.00,,,0.01,,2013-04-14 00:32:00,
2013-04-13 19:42:00,40.0,33.0,29.91,ESE,105,1.0,3.0,76,0.00,,,0.01,,2013-04-14 00:42:00,
2013-04-13 19:52:00,40.0,33.0,29.91,East,80,0.0,3.0,77,0.00,,,0.01,,2013-04-14 00:52:00,
2013-04-13 20:02:00,39.0,32.0,29.91,NE,51,0.0,3.0,77,0.00,,,0.01,,2013-04-14 01:02:00,
2013-04-13 20:12:00,39.0,32.0,29.91,NE,51,0.0,3.0,77,0.00,,,0.01,,2013-04-14 01:12:00,
2013-04-13 20:22:00,39.0,32.0,29.91,East,86,0.0,4.0,77,0.00,,,0.01,,2013-04-14 01:22:00,
2013-04-13 20:32:00,39.0,33.0,29.91,ENE,65,1.0,3.0,79,0.00,,,0.01,,2013-04-14 01:32:00,
2013-04-13 20:42:00,39.0,33.0,29.91,ENE,65,1.0,3.0,79,0.00,,,0.01,,2013-04-14 01:42:00,
2013-04-13 20:53:00,39.0,33.0,29.92,ENE,75,1.0,6.0,80,0.00,,,0.01,,2013-04-14 01:53:00,
2013-04-13 21:02:00,39.0,34.0,29.92,East,95,1.0,4.0,81,0.00,,,0.01,,2013-04-14 02:02:00,
2013-04-13 21:12:00,39.0,34.0,29.92,East,95,1.0,4.0,81,0.00,,,0.01,,2013-04-14 02:12:00,
2013-04-13 21:22:00,39.0,34.0,29.93,East,94,1.0,3.0,82,0.00,,,0.01,,2013-04-14 02:22:00,
2013-04-13 21:32:00,38.0,33.0,29.93,ESE,117,2.0,4.0,83,0.00,,,0.01,,2013-04-14 02:32:00,
2013-04-13 21:42:00,38.0,33.0,29.93,ESE,117,2.0,4.0,83,0.00,,,0.01,,2013-04-14 02:42:00,
2013-04-13 21:52:00,38.0,34.0,29.92,ENE,65,1.0,5.0,84,0.00,,,0.01,,2013-04-14 02:52:00,
2013-04-13 22:02:00,38.0,34.0,29.92,ESE,102,2.0,5.0,84,0.00,,,0.01,,2013-04-14 03:02:00,
2013-04-13 22:12:00,38.0,34.0,29.92,ESE,102,2.0,5.0,84,0.00,,,0.01,,2013-04-14 03:12:00,
2013-04-13 22:22:00,38.0,33.0,29.93,ESE,103,3.0,6.0,83,0.00,,,0.01,,2013-04-14 03:22:00,
2013-04-13 22:33:00,38.0,34.0,29.93,ENE,69,3.0,5.0,84,0.00,,,0.01,,2013-04-14 03:33:00,
2013-04-13 22:42:00,38.0,34.0,29.93,ENE,69,3.0,5.0,84,0.00,,,0.01,,2013-04-14 03:42:00,
2013-04-13 22:53:00,38.0,34.0,29.91,ENE,60,4.0,7.0,84,0.00,,,0.01,,2013-04-14 03:53:00,
2013-04-13 23:02:00,38.0,34.0,29.91,East,84,5.0,7.0,84,0.00,,,0.01,,2013-04-14 04:02:00,
2013-04-13 23:12:00,38.0,34.0,29.91,East,84,5.0,7.0,84,0.00,,,0.01,,2013-04-14 04:12:00,
2013-04-13 23:23:00,38.0,34.0,29.91,ESE,110,5.0,8.0,84,0.00,,,0.01,,2013-04-14 04:23:00,
2013-04-13 23:33:00,38.0,34.0,29.90,ESE,119,4.0,7.0,84,0.00,,,0.01,,2013-04-14 04:33:00,
2013-04-13 23:42:00,38.0,34.0,29.90,ESE,119,4.0,7.0,84,0.00,,,0.01,,2013-04-14 04:42:00,
2013-04-13 23:52:00,38.0,34.0,29.90,ENE,77,3.0,8.0,84,0.00,,,0.01,,2013-04-14 04:52:00,